Location: La Pernelle
(49.6188°N, 1.2999°W)
Time: 11:09:05
(UTC+00:00)

Cosmos 1954 Rocket - Pass Details

Date: 26 October 2021
Orbit: 751 x 782 km, 74.0° (Epoch: 26 November)

Event Time Altitude Azimuth Distance (km) Brightness Sun altitude
Rises 18:48:39 0° 339° (NNW) 3,239 7.6 -19.3°
Reaches altitude 10° 18:51:08 10° 346° (NNW) 2,314 6.7 -19.7°
Maximum altitude 18:56:09 44° 59° (ENE) 1,054 4.3 -20.5°
Enters shadow 18:56:46 43° 79° (E) 1,085 4.3 -20.6°
